{"data":{"norad_id":58025,"intl_designator":"2023-155K","name":"PVCC","alt_names":[],"object_type":"PAYLOAD","status":"ACTIVE","operator":null,"country":"BEL","launch_date":"2023-10-09","launch_site_code":"FRGUI","launch_vehicle":null,"mission":null,"orbit_class":"UNKNOWN","rcs_meters":null,"size_class":null,"mass_kg":null,"dimensions":null,"purposes":[],"wikipedia_slug":null,"has_3d_model":false,"image_url":null,"decayed_at":null,"tle_current":{"epoch":"2026-05-25T03:54:49.122720Z","epoch_age_seconds":61282,"freshness":"FRESH","line1":"1 58025U 23155K   26145.16306855  .00006245  00000+0  33192-3 0  9995","line2":"2 58025  97.5705 221.7717 0003989 191.2464 168.8680 15.15641263144491","mean_motion":15.15641263,"eccentricity":0.0003989,"inclination_deg":97.5705,"raan_deg":221.7717,"arg_perigee_deg":191.2464,"mean_anomaly_deg":168.868,"bstar":0.00033192,"rev_number":14449,"period_min":95.009289807122,"perigee_km":516.28114599536,"apogee_km":521.78370776412,"semimajor_km":6897.1694268797,"source":"CELESTRAK","updated_at":"2026-05-25T13:38:00.428877Z"}}}